Powrót do katalogu

USA 479

AktywnyMilitariaVLEO
NORAD 62548·PAYLOAD·🇺🇸 United States

Wystrzelony Jan 10, 2025 z Vandenberg Space Force Base

Loading…

Następne Przeloty (najbliższe 24 godziny)

TLE

NieaktualneSource: Mike McCants

Epoka: Aug 21, 2026, 20:48 UTC

1 62548U 25005S   26233.86672295 0.00000000  00000-0  00000-0 0    01
2 62548  70.0157 252.0093 0004840 225.6648 134.3351 14.96713554    02

Śledź USA 479 w czasie rzeczywistym z AllMySat

Download on the App Store